Wind_Speed
23 23 23 23 23 24 26 26 25 23 23 22 22 22 22 23 23 23 24 24 24 25 26 26 26 26 27 28 28 28 27 28 29 29 29 30 31 31 32 32 31 32 32 33
23 24 25 24 24 25 26 27 26 24 22 21 21 22 22 22 23 23 23 24 25 25 26 27 27 27 28 28 28 28 28 28 28 29 29 29 30 31 31 31 32 32 33 33
24 24 24 24 23 24 25 24 24 23 22 21 21 22 21 22 22 24 24 24 25 25 26 27 27 27 28 28 28 28 29 29 29 29 29 28 28 29 29 30 30 31 31 31
25 24 24 23 23 24 24 24 23 22 22 22 22 22 22 23 24 25 25 25 25 25 25 26 26 27 27 27 27 28 28 29 29 29 28 28 28 28 28 28 28 29 30 31
25 25 24 23 23 23 23 23 23 23 22 23 23 23 23 23 25 25 24 24 24 24 25 26 25 25 25 26 27 26 27 27 28 28 27 27 27 27 27 26 27 28 28 28
25 26 25 24 23 23 24 24 22 22 23 23 24 24 23 24 24 24 24 24 24 24 25 25 25 24 24 24 25 25 26 26 26 26 25 25 25 25 24 25 25 26 26 27
26 26 25 24 24 23 24 23 23 23 23 23 24 23 23 24 24 24 24 24 24 24 24 24 24 24 24 25 24 24 24 25 25 24 23 22 23 23 23 24 26 25 26 27
26 26 25 25 25 24 24 23 23 23 23 23 23 23 23 23 23 24 24 24 24 23 23 24 24 24 24 25 25 24 24 24 22 21 20 20 21 22 23 23 24 25 25 26
27 26 25 25 25 25 24 24 24 24 24 24 24 24 24 23 23 23 23 23 23 23 23 23 25 25 25 25 25 25 24 23 20 20 20 20 21 21 22 22 23 23 24 24
26 25 25 25 26 25 25 25 24 24 24 25 24 24 24 24 23 23 23 23 23 23 23 24 26 26 26 25 25 24 23 22 20 20 20 20 21 21 22 23 23 23 24 23
26 25 25 26 26 27 26 26 26 26 25 25 25 25 24 24 23 23 23 23 23 23 24 25 26 26 25 24 23 22 22 21 20 20 20 20 21 22 22 23 23 23 23 22
26 26 26 26 26 27 27 26 26 26 26 25 25 24 24 24 23 23 22 23 24 24 24 25 25 24 23 22 21 21 21 21 21 21 20 20 21 21 22 22 23 22 22 22
26 26 26 26 26 26 27 27 27 26 26 25 25 24 24 24 24 24 23 24 25 25 25 24 23 22 21 21 21 21 21 20 20 20 20 20 21 21 21 21 22 22 21 22
26 26 26 26 26 27 27 27 26 25 25 25 24 24 24 24 24 24 25 25 25 25 24 23 22 22 21 21 22 21 20 20 20 20 20 20 20 21 21 21 22 22 22 22
26 26 25 25 25 26 26 26 25 24 24 24 24 24 24 24 24 25 25 25 24 23 23 22 22 22 22 21 22 21 20 20 20 20 20 20 20 21 22 22 22 23 23 22
26 26 25 25 25 25 25 25 25 24 24 24 24 24 24 24 25 25 24 24 24 22 22 21 21 22 22 21 21 21 20 20 20 20 20 20 20 21 21 21 21 21 21 21
26 25 24 25 25 26 26 25 25 25 24 24 24 25 25 25 24 24 24 24 23 22 22 22 22 21 21 22 21 21 21 21 21 21 21 20 21 20 20 20 20 20 20 19
25 25 24 25 26 26 26 26 26 25 25 25 25 25 25 24 24 23 24 23 23 23 23 23 22 22 22 22 22 21 21 21 21 21 20 20 20 19 19 19 19 19 19 18
25 26 26 25 25 25 26 26 25 25 25 25 25 25 25 24 24 23 23 23 23 23 23 23 23 23 23 22 22 21 21 21 21 21 20 19 19 18 18 18 18 18 17 17
26 26 26 25 25 25 25 24 24 24 24 25 25 25 24 24 24 23 22 22 22 23 23 23 24 24 23 22 21 21 21 21 20 20 20 19 19 19 19 18 18 17 17 17
26 26 26 25 25 25 25 24 24 24 24 24 25 25 25 25 24 23 22 22 22 23 23 24 24 24 23 23 23 22 22 21 21 21 20 20 20 19 19 18 18 18 17 17
27 27 27 26 26 26 26 26 25 25 25 25 25 26 26 25 23 23 23 23 23 23 23 23 24 23 23 23 23 23 23 22 22 22 21 21 20 19 19 18 18 18 17 17
28 27 27 26 26 26 26 27 27 27 27 27 26 26 25 25 24 23 23 23 23 23 23 23 23 23 23 23 23 23 23 22 22 21 21 21 20 19 19 18 18 17 16 16
27 27 27 27 26 26 26 26 27 27 27 26 26 25 25 24 24 24 23 23 24 24 24 24 23 23 23 23 23 23 22 22 21 21 21 20 20 19 19 18 18 17 17 17
28 28 27 27 27 26 26 26 26 25 25 25 24 24 24 24 24 24 23 23 24 24 24 24 24 23 23 23 23 23 22 22 22 21 21 20 19 19 19 18 18 18 18 18
29 28 27 27 27 27 26 26 26 25 24 23 23 23 23 24 24 24 23 23 24 24 24 24 23 23 23 23 23 23 23 22 22 22 22 21 20 20 20 19 19 19 19 19
29 29 28 28 27 27 26 26 26 25 24 24 24 24 24 24 24 24 24 24 24 24 24 24 23 23 24 24 23 23 23 23 23 23 23 22 21 21 21 20 19 20 20 20
Wind_Direction
287 285 283 283 283 283 281 284 287 285 284 286 283 281 282 284 285 288 291 290 289 289 288 289 287 286 284 282 283 283 282 280 277 275 273 272 270 267 265 267 269 269 269 270
286 284 281 280 282 283 282 284 288 287 284 283 281 282 280 285 289 291 293 293 292 291 290 290 289 287 286 284 283 284 285 284 281 278 276 274 271 268 268 268 268 268 268 270
287 285 283 282 282 282 284 286 287 286 285 280 280 281 281 284 289 290 292 294 295 294 293 292 292 290 286 285 285 286 286 285 283 280 278 275 272 270 270 270 269 269 269 271
287 286 284 286 284 285 286 285 286 286 284 284 283 280 283 285 288 292 292 294 295 297 296 295 294 292 289 288 286 286 287 286 284 281 280 277 273 272 272 269 270 272 273 274
287 287 286 286 286 287 287 286 286 285 285 285 284 283 285 287 289 292 294 295 297 299 298 297 297 295 293 291 290 288 289 288 285 281 279 278 277 275 272 273 274 274 274 276
287 287 288 288 288 288 289 289 289 286 284 285 286 286 287 288 290 291 294 296 296 298 299 300 299 296 294 293 293 292 290 289 287 284 281 278 277 277 277 277 276 276 276 277
286 287 288 287 288 290 291 294 290 287 286 285 287 288 289 289 291 291 293 294 295 297 299 301 301 298 296 296 295 294 294 292 290 286 282 279 277 279 280 278 277 276 278 279
285 286 288 287 288 289 292 292 290 289 286 285 286 288 290 290 290 291 292 293 294 296 298 300 300 299 299 298 296 295 295 293 290 286 282 280 281 282 282 281 278 277 279 281
283 284 285 285 287 288 290 291 289 288 285 285 284 285 288 290 291 291 292 293 292 294 297 301 301 300 300 299 296 294 294 293 288 286 284 282 282 283 282 281 280 278 279 281
282 281 282 283 285 286 287 288 287 287 286 285 285 284 285 287 288 290 292 294 294 294 298 302 303 302 302 300 298 294 292 291 289 287 285 283 283 283 283 283 282 282 282 281
280 280 280 281 284 284 285 286 286 285 284 285 285 284 283 284 287 289 290 294 295 294 296 301 303 304 302 301 300 297 293 291 291 291 287 282 282 283 284 284 283 283 284 284
280 280 280 280 282 284 285 287 286 284 283 284 284 282 281 281 285 288 289 291 293 294 296 298 301 303 303 303 303 302 298 294 290 289 287 285 285 285 285 285 285 285 286 286
281 281 281 280 281 283 284 286 286 285 283 283 283 283 282 282 284 286 288 289 291 293 295 297 300 302 304 305 305 304 303 297 291 290 289 288 287 286 287 287 288 287 286 287
281 283 283 281 281 282 283 284 285 284 282 282 282 284 284 283 284 285 288 290 291 292 294 295 297 301 303 303 303 303 302 299 297 296 294 292 289 289 288 287 287 286 286 288
283 284 285 283 282 283 283 283 283 280 278 279 282 285 285 284 285 286 288 289 291 292 293 294 297 300 302 302 301 301 300 299 301 300 298 295 291 289 288 287 286 286 286 285
283 284 285 284 283 283 283 283 281 278 277 278 282 284 286 286 285 286 287 288 289 290 291 293 296 298 299 300 301 301 300 300 301 301 300 298 296 293 290 287 285 285 285 285
282 284 284 283 282 282 282 282 280 278 278 278 282 285 287 287 287 287 287 286 287 289 290 291 293 295 298 300 300 300 300 299 300 300 300 299 298 295 291 289 287 285 285 284
282 283 283 284 284 283 282 281 280 278 278 280 283 286 287 286 285 286 286 285 286 287 289 291 291 292 296 298 299 301 302 302 301 302 301 299 298 297 294 291 289 287 284 280
282 283 283 284 284 285 283 282 279 278 278 280 283 286 287 286 285 284 285 286 285 285 285 288 290 291 294 297 299 301 302 302 302 303 302 299 298 297 295 293 289 286 281 278
282 282 283 283 283 283 283 282 280 279 279 282 284 287 289 288 285 283 284 285 285 285 285 286 289 290 291 294 297 299 300 301 303 303 302 299 297 296 296 293 290 285 282 280
281 282 282 281 282 283 282 280 280 279 280 282 284 287 289 289 287 284 284 285 285 285 285 285 288 290 289 291 294 295 297 298 300 302 303 301 298 296 294 292 289 285 283 283
280 280 280 280 282 282 281 279 279 280 280 282 284 286 287 288 286 284 283 283 283 284 285 286 287 289 289 291 293 293 293 295 298 299 299 299 297 294 291 289 287 285 283 283
279 278 279 280 282 282 281 280 280 281 281 281 282 283 284 285 284 283 282 282 282 283 285 287 287 287 288 290 292 291 292 293 295 296 297 297 295 292 289 286 286 285 283 282
278 278 278 280 281 281 281 281 282 282 282 281 281 281 283 284 285 284 282 282 283 283 284 286 287 286 287 288 290 290 290 290 291 294 295 296 294 291 287 285 284 283 283 282
277 277 278 279 280 280 281 282 283 283 282 280 280 280 282 284 285 285 284 283 283 284 284 285 286 285 285 286 287 287 287 287 288 290 292 293 293 292 290 287 284 282 282 283
276 276 277 277 279 279 280 281 281 281 280 278 279 280 282 283 284 285 285 285 285 285 285 285 286 286 285 286 286 285 284 284 284 286 289 290 291 291 290 287 285 282 280 281
273 274 275 275 276 277 278 278 279 279 278 278 278 281 283 284 284 286 286 286 287 286 287 286 286 286 286 287 286 285 283 283 283 284 285 286 287 286 284 283 283 281 281 281
Height
5616 5615 5613 5613 5611 5610 5608 5606 5605 5605 5604 5604 5602 5601 5600 5598 5597 5596 5594 5592 5590 5588 5586 5584 5582 5580 5578 5577 5575 5573 5571 5570 5569 5567 5566 5565 5565 5565 5566 5566 5566 5566 5566 5566
5611 5609 5607 5607 5606 5604 5602 5601 5599 5598 5598 5598 5596 5594 5594 5592 5591 5590 5588 5586 5584 5582 5579 5577 5575 5573 5571 5569 5567 5565 5563 5562 5560 5559 5558 5557 5557 5557 5557 5557 5558 5558 5558 5558
5605 5604 5602 5602 5601 5599 5597 5596 5594 5592 5593 5591 5590 5589 5588 5587 5585 5584 5581 5579 5577 5575 5573 5570 5568 5565 5563 5561 5559 5557 5556 5554 5552 5551 5550 5549 5548 5548 5549 5549 5549 5549 5549 5549
5598 5598 5596 5599 5595 5593 5591 5590 5588 5587 5586 5585 5584 5583 5582 5581 5579 5577 5575 5573 5571 5568 5566 5563 5560 5558 5556 5554 5552 5550 5548 5546 5544 5542 5541 5541 5540 5540 5540 5540 5540 5540 5540 5540
5592 5591 5591 5592 5589 5587 5585 5585 5584 5581 5581 5579 5578 5577 5577 5575 5573 5571 5569 5566 5564 5561 5559 5556 5554 5551 5549 5547 5545 5543 5541 5539 5537 5535 5534 5533 5533 5532 5532 5532 5532 5532 5531 5530
5587 5585 5585 5587 5584 5581 5581 5580 5579 5576 5575 5573 5572 5572 5572 5569 5567 5565 5562 5560 5558 5555 5553 5550 5548 5545 5543 5541 5538 5536 5534 5532 5530 5528 5527 5526 5525 5524 5524 5524 5524 5523 5523 5522
5582 5579 5580 5581 5578 5576 5576 5576 5572 5570 5568 5567 5566 5565 5564 5562 5560 5558 5556 5554 5552 5549 5547 5544 5541 5539 5537 5534 5532 5529 5527 5525 5523 5521 5520 5519 5518 5517 5517 5516 5515 5515 5514 5514
5576 5574 5577 5574 5572 5571 5570 5567 5565 5563 5562 5561 5560 5559 5557 5556 5554 5552 5550 5548 5545 5543 5541 5538 5535 5533 5530 5528 5525 5523 5521 5518 5516 5514 5513 5512 5511 5510 5509 5508 5507 5507 5506 5505
5572 5572 5570 5568 5566 5565 5563 5561 5559 5557 5556 5555 5553 5552 5551 5550 5548 5546 5543 5541 5539 5537 5535 5533 5529 5527 5524 5521 5519 5516 5514 5512 5510 5508 5507 5505 5504 5503 5502 5501 5500 5500 5499 5498
5565 5565 5564 5562 5560 5559 5557 5555 5553 5551 5550 5548 5547 5545 5544 5543 5541 5539 5538 5536 5534 5531 5529 5527 5523 5520 5517 5514 5512 5509 5507 5505 5503 5502 5500 5499 5498 5497 5496 5495 5494 5493 5492 5491
5558 5558 5557 5556 5554 5552 5550 5548 5547 5545 5543 5542 5540 5539 5537 5536 5535 5533 5532 5530 5528 5526 5523 5520 5517 5514 5511 5508 5505 5503 5501 5499 5497 5496 5494 5493 5492 5491 5490 5489 5488 5487 5485 5485
5552 5551 5550 5549 5547 5545 5544 5542 5541 5539 5537 5536 5534 5532 5531 5530 5528 5527 5526 5524 5522 5520 5517 5514 5511 5508 5505 5502 5500 5498 5495 5493 5491 5490 5488 5487 5486 5485 5483 5482 5481 5480 5479 5478
5544 5543 5542 5541 5540 5538 5537 5536 5534 5532 5531 5529 5527 5526 5524 5523 5522 5521 5519 5518 5516 5513 5511 5508 5505 5503 5500 5497 5495 5492 5490 5487 5486 5484 5483 5481 5480 5479 5478 5476 5475 5474 5473 5472
5537 5535 5534 5534 5532 5531 5530 5528 5527 5525 5524 5522 5521 5519 5518 5517 5515 5514 5513 5511 5509 5507 5505 5503 5500 5498 5495 5492 5490 5487 5485 5482 5481 5479 5477 5475 5474 5473 5472 5471 5470 5468 5467 5466
5529 5528 5527 5526 5525 5524 5523 5521 5520 5519 5517 5516 5514 5513 5511 5510 5509 5508 5506 5504 5502 5501 5499 5497 5495 5492 5490 5487 5485 5482 5480 5478 5476 5474 5472 5470 5468 5467 5466 5465 5464 5463 5461 5460
5522 5521 5520 5519 5518 5517 5516 5514 5513 5512 5511 5510 5508 5506 5505 5503 5502 5501 5499 5498 5496 5495 5493 5491 5489 5487 5485 5482 5480 5478 5475 5473 5471 5469 5467 5465 5463 5461 5460 5459 5458 5457 5456 5455
5515 5514 5513 5512 5511 5510 5508 5507 5506 5505 5504 5503 5501 5500 5498 5497 5495 5494 5492 5491 5490 5489 5487 5486 5484 5482 5480 5478 5475 5473 5471 5468 5466 5464 5461 5459 5457 5456 5454 5453 5452 5451 5450 5450
5507 5506 5505 5505 5503 5502 5501 5500 5498 5497 5497 5496 5494 5493 5491 5490 5489 5487 5486 5484 5483 5482 5481 5480 5478 5476 5474 5472 5470 5468 5465 5463 5461 5459 5456 5454 5452 5451 5449 5448 5447 5446 5445 5445
5499 5499 5498 5497 5495 5494 5493 5492 5491 5490 5489 5488 5487 5486 5484 5483 5482 5481 5479 5478 5477 5476 5475 5473 5472 5470 5468 5466 5464 5462 5460 5458 5456 5454 5451 5449 5447 5446 5444 5443 5442 5441 5440 5440
5492 5491 5490 5489 5488 5487 5485 5484 5483 5482 5482 5481 5480 5479 5477 5476 5474 5473 5472 5471 5470 5469 5468 5466 5465 5464 5462 5460 5459 5457 5455 5453 5451 5449 5446 5444 5443 5441 5440 5438 5437 5436 5436 5435
5484 5483 5482 5481 5480 5479 5478 5477 5476 5475 5475 5474 5473 5471 5470 5469 5467 5466 5465 5464 5463 5462 5461 5460 5459 5457 5456 5454 5453 5451 5449 5447 5446 5444 5442 5440 5438 5436 5435 5433 5432 5432 5431 5431
5475 5475 5474 5473 5473 5472 5471 5470 5469 5468 5467 5466 5465 5464 5463 5461 5460 5459 5458 5457 5456 5455 5454 5453 5451 5450 5449 5448 5446 5445 5443 5442 5440 5439 5437 5435 5433 5431 5430 5429 5428 5427 5426 5425
5467 5466 5466 5465 5464 5464 5463 5462 5461 5460 5459 5458 5457 5456 5455 5454 5453 5452 5451 5450 5449 5448 5447 5446 5444 5443 5442 5441 5439 5438 5437 5436 5434 5433 5431 5429 5428 5426 5425 5423 5423 5422 5421 5420
5458 5458 5458 5457 5456 5455 5455 5454 5453 5452 5451 5450 5449 5448 5447 5446 5445 5444 5443 5443 5442 5441 5440 5439 5437 5436 5435 5434 5432 5431 5430 5429 5428 5427 5425 5424 5422 5421 5419 5418 5417 5416 5416 5415
5450 5449 5449 5449 5448 5447 5447 5446 5445 5444 5443 5442 5441 5440 5439 5439 5438 5437 5436 5435 5434 5433 5432 5431 5430 5428 5427 5426 5425 5424 5423 5422 5421 5420 5419 5418 5417 5415 5414 5412 5412 5411 5410 5410
5441 5441 5440 5440 5439 5439 5438 5438 5437 5436 5435 5435 5434 5433 5432 5431 5430 5429 5428 5427 5427 5426 5425 5424 5422 5421 5420 5419 5418 5417 5416 5415 5415 5414 5413 5412 5411 5409 5408 5407 5406 5405 5405 5404
5432 5432 5431 5431 5431 5430 5430 5429 5429 5428 5427 5427 5426 5425 5424 5424 5423 5422 5421 5420 5419 5418 5417 5416 5415 5414 5412 5411 5410 5410 5409 5408 5407 5407 5406 5405 5404 5403 5402 5401 5400 5399 5399 5398